{"data":{"norad_id":68052,"epoch":"2026-09-20T04:06:17.996832Z","epoch_age_seconds":87945,"freshness":"FRESH","line1":"1 68052U 26041N   26263.17104163  .00022337  00000+0  67006-3 0  9994","line2":"2 68052  53.1576 223.0273 0000789  76.1960 283.9130 15.34409579 31212","mean_motion":15.34409579,"eccentricity":7.89e-5,"inclination_deg":53.1576,"raan_deg":223.0273,"arg_perigee_deg":76.196,"mean_anomaly_deg":283.913,"bstar":0.00067006,"rev_number":3121,"period_min":93.847172209292,"perigee_km":462.13502949992,"apogee_km":463.21450959716,"semimajor_km":6840.8117695485,"source":"CELESTRAK","updated_at":"2026-09-20T09:00:43.749328Z"}}